Погода в Гранд-Прейри

Канада     55°10′16″N   118°47′41″W
темп.,
°C
ветер,
м/с
пор.,
м/с
влажн.,
%
обл.,
%
осадки,
мм/ч
давл.,
гПа
погр.,
м
30 июня, чт
чт3000:00+12з33845 0.2 101728
03:00+10юз22866 0.1 101717
06:00+9юз338669 0.1 101840
09:00+15зюз357356 0.0 1017214
12:00+21зюз345739 0.0 1015581
15:00+24зюз22415 0.0 10141483
18:00+24юз12395 0.0 1012871
21:00+21юз226321 0.0 101115
1 июля, пт
пт100:00+16зсз4116921 0.1 1012224
03:00+12с6139497 1.4 1014402
06:00+12зсз2597100 1.7 1016204
09:00+10ссв5993100 3.4 1019443
12:00+12ссв4584100 3.5 1020810
15:00+13св2275100 0.1 1021720
18:00+14ююв116957 0.2 1020719
21:00+14вюв12775 0.1 101958
2 июля, сб
сб200:00+9вюв22930 0.1 102125
03:00+7в22955 0.0 102118
06:00+7в22955 0.0 102028
09:00+11вюв34745 0.0 1019333
12:00+17вюв34465 0.0 10171198
15:00+19всв44435 0.0 10161542
18:00+19св33461 0.0 10151144
21:00+16св36695 0.0 1015115
3 июля, вс
вс300:00+10всв23875 0.0 101619
03:00+9св22880 0.0 101621
06:00+8всв22915 0.0 101723
09:00+13в23755 0.0 1016296
12:00+19в45584 0.0 1015933
15:00+21всв55465 0.0 10131696
18:00+21всв56520 0.0 10121768
21:00+18всв511678 0.0 1012325
4 июля, пн
пн400:00+13в497511 0.0 1014149
03:00+10в34901 0.0 101548
06:00+9всв36940 0.0 1016102
09:00+15в58740 0.0 1016437
12:00+19в69560 0.0 10151539
15:00+20вюв4756100 0.0 1014944
18:00+18в697099 0.3 1014535
21:00+15в5108326 0.5 1015230